This is the latest recevied weather packets stored in our database for station/object 2E0RGX-13. If no packets are shown the sender has not sent any weather packets the latest 10 day(s).
| Time | Temp. | Humidity | Pressure | Rain* | Wind** | Luminosity | Snow |
|---|---|---|---|---|---|---|---|
| 1778232839 | 15.56° C | 61% | 1013.8 hPa | 0 mm | - | 3 W/m² | - |
| 1778232535 | 15.56° C | 63% | 1013.8 hPa | 0 mm | - | 3 W/m² | - |
| 1778232231 | 15° C | 65% | 1013.6 hPa | 0 mm | - | 4 W/m² | - |
| 1778231927 | 15° C | 66% | 1013.9 hPa | 0 mm | - | 4 W/m² | - |
| 1778231622 | 15° C | 65% | 1013.9 hPa | 0 mm | - | 4 W/m² | - |
| 1778231319 | 14.44° C | 66% | 1013.7 hPa | 0 mm | - | 4 W/m² | - |
| 1778231014 | 13.89° C | 68% | 1013.8 hPa | 0 mm | - | 2 W/m² | - |
| 1778230710 | 14.44° C | 69% | 1013.9 hPa | 0 mm | - | 2 W/m² | - |
| 1778230406 | 14.44° C | 68% | 1013.8 hPa | 0 mm | - | 3 W/m² | - |
| 1778230103 | 13.89° C | 68% | 1014 hPa | 0 mm | - | 2 W/m² | - |
| 1778229799 | 13.89° C | 71% | 1013.8 hPa | 0 mm | - | 2 W/m² | - |
| 1778229495 | 13.89° C | 73% | 1014.2 hPa | 0 mm | - | 2 W/m² | - |
| 1778229191 | 13.89° C | 72% | 1013.9 hPa | 0 mm | - | 2 W/m² | - |
| 1778228887 | 13.89° C | 72% | 1013.9 hPa | 0 mm | - | 2 W/m² | - |
| 1778228583 | 13.89° C | 73% | 1013.9 hPa | 0 mm | - | 2 W/m² | - |
| 1778228279 | 13.89° C | 73% | 1013.7 hPa | 0 mm | - | 2 W/m² | - |
| 1778227975 | 13.89° C | 72% | 1013.9 hPa | 0 mm | - | 3 W/m² | - |
| 1778227671 | 13.89° C | 74% | 1013.8 hPa | 0 mm | - | 3 W/m² | - |
| 1778227366 | 13.33° C | 76% | 1014 hPa | 0 mm | - | 3 W/m² | - |
| 1778227062 | 13.33° C | 77% | 1013.6 hPa | 0 mm | - | 3 W/m² | - |
| 1778226759 | 12.78° C | 78% | 1013.7 hPa | 0 mm | - | 3 W/m² | - |
| 1778226455 | 12.22° C | 80% | 1013.8 hPa | 0 mm | - | 3 W/m² | - |
| 1778226151 | 12.22° C | 81% | 1013.7 hPa | 0 mm | - | 1 W/m² | - |
| 1778225847 | 12.22° C | 81% | 1013.8 hPa | 0 mm | - | 1 W/m² | - |
| 1778225543 | 12.22° C | 81% | 1013.5 hPa | 0 mm | - | 1 W/m² | - |
* Rain latest hour (hover to see other rain measurements)
** Current wind speed in m/s (hover to see current wind gust speed)